Satellite-Ground Cal/Val Site Overpasses Predictions

Prediction of Satellite NPP Overpassing Cal/Val Site: Antarctic Dome C

Ground Cal/Val Site Location: Latitude: -75.10, Longitude: 123.35; Satellite-Ground Site NADIR distance within 100 km.

Table of predicted overpasses for the next 14.0 days since TLE Epoch: 3/9/2018
Interval Starting Time Ending Time Minimum Distance Time Minimum Distance (km)
1 03/10/2018 15:00:50 03/10/2018 15:01:14 03/10/2018 15:01:02 56.87
2 03/11/2018 14:42:01 03/11/2018 14:42:26 03/11/2018 14:42:13 52.15
3 03/12/2018 07:43:41 03/12/2018 07:44:02 03/12/2018 07:43:52 69.67
4 03/13/2018 07:24:50 03/13/2018 07:25:17 03/13/2018 07:25:03 38.32
5 03/15/2018 15:07:17 03/15/2018 15:07:26 03/15/2018 15:07:21 94.82
6 03/16/2018 14:48:17 03/16/2018 14:48:46 03/16/2018 14:48:31 16.32
7 03/18/2018 07:31:08 03/18/2018 07:31:37 03/18/2018 07:31:22 3.11
8 03/21/2018 14:54:36 03/21/2018 14:55:05 03/21/2018 14:54:50 20.32
9 03/22/2018 14:35:55 03/22/2018 14:36:09 03/22/2018 14:36:02 86.55


NCC Satellite Cal/Val Overpasses Prediction Service
